Stations météo

réclame
Mon MeteoGroup
List/Sylt, Allemagne (10020): Température de l'air & dewpoint: 15.10.2017 06:00:00 - 21.10.2017 06:00:00 (CEST)List/Sylt, Allemagne (10020): Température de l'air 5cm & Température de l'air -5cm: 15.10.2017 06:00:00 - 21.10.2017 06:00:00 (CEST)List/Sylt, Allemagne (10020): Température de l'air -20cm: 15.10.2017 06:00:00 - 21.10.2017 06:00:00 (CEST)List/Sylt, Allemagne (10020): Vitesse du vent & gusts: 15.10.2017 06:00:00 - 21.10.2017 06:00:00 (CEST)List/Sylt, Allemagne (10020): Direction du vent: 15.10.2017 06:00:00 - 21.10.2017 06:00:00 (CEST)List/Sylt, Allemagne (10020): reduced air pressure: 15.10.2017 06:00:00 - 21.10.2017 06:00:00 (CEST)List/Sylt, Allemagne (10020): visibility: 15.10.2017 06:00:00 - 21.10.2017 06:00:00 (CEST)List/Sylt, Allemagne (10020): Ensoleillement: 15.10.2017 06:00:00 - 21.10.2017 06:00:00 (CEST)List/Sylt, Allemagne (10020): Quantités de précipitations: 15.10.2017 06:00:00 - 21.10.2017 06:00:00 (CEST)
Date & Time tt [°C] td [°C] tt 5cm [°C] tt -5cm [°C] tt -20cm [°C] ff [km/h] ff [knt] fx [km/h] fx [knt] dd ppp [hPa] vv [km] sd [min] rr [mm]
21.10.2017 06:00:00 12,6 12,0 12,3 12,6 12,8 21 11 30 16 SE 1009,4 11 0 0,0
21.10.2017 05:00:00 12,8 11,8 12,2 12,6 12,9 19 11 29 16 SE 1009,3 15 0 0,0
21.10.2017 04:00:00 12,8 11,9 11,9 12,7 12,9 17 9 27 15 SSE 1009,2 15 0 0,0
21.10.2017 03:00:00 12,8 12,0 12,0 12,7 12,9 22 12 31 17 SSE 1009,2 11 0 0,0
21.10.2017 02:00:00 12,8 11,9 12,2 12,7 12,9 27 14 33 18 SSE 1009,3 8 0 0,0
21.10.2017 01:00:00 12,7 11,8 12,0 12,7 13,0 22 12 35 19 SSE 1009,2 10 0 0,0
21.10.2017 00:00:00 12,9 11,7 12,2 12,7 13,0 24 13 38 20 SSE 1009,1 12 0 0,0
20.10.2017 23:00:00 12,9 11,7 12,1 12,7 13,0 23 13 34 19 SSE 1009,1 21 0 0,0
20.10.2017 22:00:00 13,2 11,4 12,0 12,8 13,1 23 12 31 17 S 1008,8 36 0 0,0
20.10.2017 21:00:00 13,4 12,2 12,0 13,0 13,1 21 12 38 20 S 1008,5 11 0 1,8
20.10.2017 20:00:00 13,4 12,6 13,1 13,1 13,2 24 13 42 23 SSE 1008,3 4,4 0 0,4
20.10.2017 19:00:00 13,6 12,7 12,5 13,3 13,2 23 13 34 18 SE 1008,0 9 0 0,0
20.10.2017 18:00:00 14,0 12,6 13,2 13,4 13,1 24 13 40 22 SSE 1007,6 14 0 0,0
20.10.2017 17:00:00 14,2 12,4 13,6 13,5 13,1 31 17 45 24 SSE 1007,3 19 0 0,0
20.10.2017 16:00:00 14,4 12,5 14,1 13,5 13,0 32 17 49 27 SSE 1007,1 19 0 0,0
20.10.2017 15:00:00 14,8 12,5 14,3 13,4 12,9 41 22 52 28 SSE 1007,1 23 7 0,0
20.10.2017 14:00:00 14,9 12,4 15,0 13,1 12,9 37 20 53 29 SE 1007,1 13 4 0,2
20.10.2017 13:00:00 13,6 12,2 13,0 12,9 12,8 30 16 50 27 SE 1007,7 6 0 0,6
20.10.2017 12:00:00 13,7 11,9 12,9 12,8 12,8 32 18 47 25 SE 1008,2 6 0 0,0
20.10.2017 11:00:00 13,0 12,0 12,8 12,7 12,8 28 15 38 20 SE 1008,2 3,8 0 0,0
20.10.2017 10:00:00 12,4 11,8 12,1 12,6 12,8 30 16 40 22 ESE 1007,9 2,5 0 0,1
20.10.2017 09:00:00 12,3 11,8 12,0 12,6 12,8 29 16 37 20 ESE 1007,7 2,0 0 0,0
20.10.2017 08:00:00 12,3 11,9 12,0 12,6 12,8 26 14 - - SE 1008,0 1,7 0 0,0
20.10.2017 07:00:00 12,3 11,9 12,0 12,6 12,8 25 14 36 20 SE 1008,2 1,5 0 0,0
20.10.2017 06:00:00 12,2 11,8 12,1 12,6 12,9 28 15 36 20 SE 1008,5 1,0 0 0,0
20.10.2017 05:00:00 12,4 11,9 12,1 12,6 12,9 27 15 35 19 ESE 1008,6 1,8 0 0,0
20.10.2017 04:00:00 12,5 11,9 11,9 12,6 12,9 24 13 34 18 ESE 1009,2 2,3 0 0,0
20.10.2017 03:00:00 12,6 12,0 11,9 12,7 12,9 23 12 36 19 ESE 1009,5 2,6 0 0,0
20.10.2017 02:00:00 12,6 12,0 12,0 12,7 13,0 28 15 41 22 ESE 1009,7 3,2 0 0,0
20.10.2017 01:00:00 12,5 11,9 12,0 12,7 13,0 32 18 41 22 ESE 1010,0 3,2 0 0,0
20.10.2017 00:00:00 12,4 11,9 11,7 12,7 13,1 31 17 39 21 ESE 1010,5 3,6 0 0,0
19.10.2017 23:00:00 12,3 11,7 11,5 12,8 13,2 29 16 36 19 ESE 1011,2 4,3 0 0,0
19.10.2017 22:00:00 12,5 11,8 11,7 13,0 13,2 29 16 42 23 ESE 1011,2 6 0 0,0
19.10.2017 21:00:00 12,6 11,8 11,9 13,1 13,3 32 18 44 24 ESE 1011,1 6 0 0,0
19.10.2017 20:00:00 12,8 11,9 12,2 13,2 13,3 30 16 40 22 ESE 1011,7 5 0 0,0
19.10.2017 19:00:00 13,1 12,1 12,4 13,4 13,3 32 17 41 22 ESE 1011,7 8 0 0,0
19.10.2017 18:00:00 13,5 12,4 12,9 13,6 13,3 28 15 36 20 E 1011,7 7 0 0,0
19.10.2017 17:00:00 13,9 12,7 13,5 13,7 13,2 22 12 32 18 E 1012,0 7 0 0,0
19.10.2017 16:00:00 14,5 13,1 14,4 13,7 13,1 16 8 29 16 ESE 1012,3 6 0 0,0
19.10.2017 15:00:00 14,7 13,1 15,2 13,5 13,0 23 13 31 17 ESE 1012,5 7 0 0,0
19.10.2017 14:00:00 14,2 12,7 14,1 13,3 12,9 20 11 28 15 ESE 1013,0 8 0 0,0
19.10.2017 13:00:00 13,7 12,4 13,6 13,2 12,9 22 12 30 16 ESE 1013,2 11 0 0,0
19.10.2017 12:00:00 13,4 12,2 13,6 12,9 12,8 25 13 31 17 ESE 1013,3 16 0 0,0
19.10.2017 11:00:00 12,6 11,8 12,6 12,7 12,8 24 13 32 17 ESE 1013,6 11 0 0,0
19.10.2017 10:00:00 12,3 11,7 12,2 12,5 12,8 20 11 36 20 ESE 1013,8 9 0 0,0
19.10.2017 09:00:00 12,0 11,4 11,7 12,5 12,8 26 14 34 18 ESE 1013,7 9 0 0,1
19.10.2017 08:00:00 11,8 11,2 11,4 12,5 12,8 27 14 34 19 E 1013,6 7 0 0,2
19.10.2017 07:00:00 11,8 10,9 11,3 12,5 12,9 26 14 37 20 E 1013,9 14 0 0,0
19.10.2017 06:00:00 11,9 11,0 11,5 12,6 12,9 26 14 34 19 ESE 1014,0 14 0 0,0
19.10.2017 05:00:00 11,8 10,9 11,4 12,6 12,9 28 15 38 21 ESE 1014,0 17 0 0,0
19.10.2017 04:00:00 11,9 10,8 11,4 12,6 13,0 23 12 31 17 E 1014,3 16 0 0,0
19.10.2017 03:00:00 11,9 11,0 11,5 12,6 13,0 22 12 28 15 E 1014,4 21 0 0,2
19.10.2017 02:00:00 11,7 10,4 10,9 12,7 13,1 18 10 23 12 E 1014,7 10 0 1,6
19.10.2017 01:00:00 11,9 10,7 11,2 12,8 13,1 12 7 16 9 E 1015,0 13 0 0,9
19.10.2017 00:00:00 12,0 11,5 11,6 12,8 13,2 11 6 18 10 E 1015,0 16 0 1,3
18.10.2017 23:00:00 11,8 11,1 11,4 12,9 13,2 12 6 16 9 E 1015,2 13 0 1,4
18.10.2017 22:00:00 11,6 10,8 11,2 13,0 13,3 11 6 16 9 ENE 1015,1 39 0 0,3
18.10.2017 21:00:00 11,6 10,9 11,3 13,1 13,3 12 6 16 9 E 1015,0 63 0 0,3
18.10.2017 20:00:00 11,6 10,7 11,2 13,2 13,4 8 5 12 7 ENE 1014,9 11 0 0,8
18.10.2017 19:00:00 11,8 10,7 11,3 13,4 13,4 9 5 11 6 ENE 1014,7 23 0 1,2
18.10.2017 18:00:00 12,2 10,9 11,9 13,5 13,4 6 4 11 6 NE 1014,7 70 0 0,0
18.10.2017 17:00:00 12,3 11,2 12,2 13,7 13,4 9 5 11 6 NE 1014,7 70 0 0,0
18.10.2017 16:00:00 12,8 11,5 12,9 13,7 13,3 5 3 11 6 NW 1014,7 52 0 0,1
18.10.2017 15:00:00 13,0 11,5 12,9 13,7 13,3 10 5 13 7 WNW 1014,8 15 0 0,0
18.10.2017 14:00:00 13,5 11,1 14,1 13,6 13,2 9 5 14 8 NW 1014,9 58 0 0,0
18.10.2017 13:00:00 13,6 11,3 14,4 13,5 13,1 10 6 21 11 WNW 1015,0 51 0 0,0
18.10.2017 12:00:00 13,5 11,2 14,5 13,2 13,0 17 9 24 13 NW 1014,8 41 1 0,0
18.10.2017 11:00:00 13,8 10,6 13,5 12,9 13,0 19 10 25 13 W 1014,8 34 0 0,0
18.10.2017 10:00:00 13,9 10,5 13,8 12,7 13,0 14 8 24 13 W 1014,6 33 0 0,0
18.10.2017 09:00:00 13,7 10,4 13,3 12,6 13,0 20 11 29 15 W 1014,3 33 0 0,0
18.10.2017 08:00:00 13,5 10,1 12,6 12,6 13,0 23 12 34 19 W 1013,8 32 0 0,0
18.10.2017 07:00:00 13,5 10,0 12,7 12,6 13,0 24 13 35 19 W 1013,8 33 0 0,0
18.10.2017 06:00:00 13,6 9,6 13,0 12,6 13,1 26 14 42 23 W 1013,9 37 0 0,0
18.10.2017 05:00:00 13,6 9,4 13,0 12,6 13,1 29 15 47 26 W 1013,8 31 0 0,0
18.10.2017 04:00:00 13,5 8,7 12,5 12,6 13,2 33 18 52 28 W 1013,8 35 0 0,0
18.10.2017 03:00:00 13,8 8,7 12,7 12,7 13,3 31 17 53 29 W 1013,8 34 0 0,0
18.10.2017 02:00:00 13,7 8,9 12,7 12,8 13,3 31 17 49 26 W 1014,0 33 0 0,0
18.10.2017 01:00:00 14,1 8,9 13,2 12,9 13,4 35 19 51 28 WSW 1014,0 30 0 0,0
18.10.2017 00:00:00 13,8 9,0 12,5 12,9 13,5 38 21 53 29 WSW 1014,0 27 0 0,0
17.10.2017 23:00:00 14,0 9,2 13,3 13,1 13,5 39 21 56 30 WSW 1014,2 25 0 0,0
17.10.2017 22:00:00 13,9 9,5 13,3 13,2 13,6 39 21 61 33 WSW 1014,1 23 0 0,0
17.10.2017 21:00:00 13,9 9,5 13,3 13,3 13,7 41 22 59 32 WSW 1014,1 21 0 0,0
17.10.2017 20:00:00 13,7 9,4 12,8 13,4 13,8 40 21 61 33 WSW 1014,1 22 0 0,0
17.10.2017 19:00:00 13,6 8,8 12,6 13,6 13,8 40 22 63 34 WSW 1014,3 23 0 0,0
17.10.2017 18:00:00 13,9 9,2 13,4 13,9 13,9 41 22 60 33 WSW 1014,1 28 1 0,0
17.10.2017 17:00:00 14,3 9,3 14,3 14,0 13,9 39 21 68 37 WSW 1014,5 20 33 0,0
17.10.2017 16:00:00 14,5 9,1 14,5 14,2 13,8 40 22 62 34 SW 1014,7 4,4 48 0,0
17.10.2017 15:00:00 15,4 9,6 17,2 14,2 13,8 41 22 64 34 WSW 1015,0 6 45 0,0
17.10.2017 14:00:00 15,3 9,5 17,0 14,1 13,7 44 24 61 33 SW 1015,2 10 22 0,0
17.10.2017 13:00:00 15,6 9,8 17,5 13,9 13,6 44 24 61 33 SW 1015,5 12 44 0,0
17.10.2017 12:00:00 15,4 9,4 17,2 13,6 13,6 42 23 67 36 SW 1015,6 14 31 0,0
17.10.2017 11:00:00 14,5 9,4 14,3 13,3 13,6 36 19 57 31 WSW 1015,8 20 14 0,0
17.10.2017 10:00:00 14,3 9,5 13,8 13,3 13,7 38 21 56 30 SW 1015,8 15 11 0,0
17.10.2017 09:00:00 14,0 10,4 12,9 13,4 13,8 28 15 53 29 WSW 1015,7 13 0 0,0
17.10.2017 08:00:00 14,1 10,3 12,7 13,5 13,8 34 18 55 30 WSW 1015,5 16 0 0,0
17.10.2017 07:00:00 14,5 11,2 13,2 13,6 13,9 35 19 53 28 WSW 1015,3 15 0 0,0
17.10.2017 06:00:00 14,9 11,9 13,7 13,8 14,0 29 16 49 26 WSW 1015,1 16 0 0,0
17.10.2017 05:00:00 15,4 12,4 14,2 13,9 14,0 32 18 49 26 SW 1015,0 15 0 0,0
17.10.2017 04:00:00 16,0 13,0 15,0 14,0 14,0 36 20 53 28 SW 1014,9 16 0 0,0
17.10.2017 03:00:00 16,4 14,0 15,2 14,1 14,0 34 19 50 27 SW 1015,2 12 0 0,0
17.10.2017 02:00:00 17,0 14,4 15,9 14,1 14,0 39 21 58 31 SW 1015,4 9 0 0,0
17.10.2017 01:00:00 16,8 14,2 15,4 14,1 14,0 34 18 44 24 S 1015,7 8 0 0,0
17.10.2017 00:00:00 16,0 14,3 14,7 14,0 14,1 26 14 34 18 S 1015,8 6 0 0,0
16.10.2017 23:00:00 15,9 14,4 14,7 14,0 14,1 27 14 32 17 S 1016,5 4,6 0 0,0
16.10.2017 22:00:00 14,7 14,0 13,7 14,0 14,2 19 10 29 16 SSE 1016,5 2,7 0 0,0
16.10.2017 21:00:00 14,5 14,0 13,5 14,2 14,2 18 10 27 14 SSE 1017,3 2,4 0 0,0
16.10.2017 20:00:00 14,6 14,0 13,7 14,3 14,3 20 11 27 15 SSE 1017,8 2,6 0 0,0
16.10.2017 19:00:00 14,4 13,9 13,5 14,5 14,3 18 10 25 13 SSE 1017,9 2,4 0 0,0
16.10.2017 18:00:00 14,7 13,8 14,1 14,8 14,3 18 10 24 13 SSE 1018,2 3,4 0 0,0
16.10.2017 17:00:00 14,8 14,0 15,5 14,9 14,3 16 8 24 13 S 1018,8 2,9 0 0,0
16.10.2017 16:00:00 14,5 13,9 15,4 14,9 14,2 16 8 20 11 SSE 1018,9 2,6 0 0,0
16.10.2017 15:00:00 14,2 13,8 15,5 14,9 14,2 14 8 21 12 SSE 1019,1 2,5 0 0,0
16.10.2017 14:00:00 14,5 13,7 15,7 14,8 14,1 13 7 16 9 SSW 1019,6 2,7 0 0,0
16.10.2017 13:00:00 14,9 14,1 16,1 14,6 14,0 9 5 23 12 SW 1019,6 4,1 0 0,0
16.10.2017 12:00:00 14,9 14,0 15,4 14,4 14,0 13 7 27 15 SW 1019,5 3,8 0 0,0
16.10.2017 11:00:00 14,8 14,3 15,3 14,3 13,9 15 8 26 14 WSW 1019,4 4,7 0 0,0
16.10.2017 10:00:00 14,2 14,0 14,7 14,1 13,9 19 11 27 14 SW 1018,6 0,3 0 0,0
16.10.2017 09:00:00 14,6 14,2 14,6 14,0 13,9 14 8 20 11 SW 1018,1 1,8 0 0,0
16.10.2017 08:00:00 14,6 14,1 14,1 14,1 14,0 14 8 26 14 WSW 1017,7 3,3 0 0,0
16.10.2017 07:00:00 14,8 14,1 14,6 14,1 14,0 19 10 28 15 SW 1017,7 3,4 0 0,0
16.10.2017 06:00:00 15,1 14,0 14,8 14,1 14,0 19 10 28 15 SW 1017,3 5 0 0,0
16.10.2017 05:00:00 15,3 14,2 14,9 14,0 14,0 17 9 27 14 SW 1017,0 5 0 0,0
16.10.2017 04:00:00 14,9 13,9 14,3 14,0 14,0 18 10 26 14 SW 1017,3 5 0 0,0
16.10.2017 03:00:00 15,3 14,2 14,8 14,0 14,0 18 10 27 15 SW 1017,5 6 0 0,0
16.10.2017 02:00:00 15,1 14,1 14,4 13,9 14,1 16 9 27 15 SW 1017,8 6 0 0,0
16.10.2017 01:00:00 14,7 13,6 13,5 14,1 14,2 20 11 37 20 SW 1017,9 7 0 0,0
16.10.2017 00:00:00 15,9 13,7 14,6 14,2 14,2 31 17 41 22 SW 1017,5 12 0 0,0
15.10.2017 23:00:00 15,9 13,5 14,4 14,2 14,3 29 16 40 22 SSW 1017,4 13 0 0,0
15.10.2017 22:00:00 15,8 13,6 14,4 14,4 14,4 32 18 41 22 SSW 1017,5 11 0 0,0
15.10.2017 21:00:00 15,5 13,7 14,1 14,5 14,4 28 15 44 24 S 1017,5 8 0 0,0
15.10.2017 20:00:00 15,9 13,9 14,5 14,7 14,5 34 18 46 25 S 1017,5 9 0 0,0
15.10.2017 19:00:00 15,9 14,0 14,7 14,9 14,5 34 18 43 23 S 1017,9 7 0 0,0
15.10.2017 18:00:00 16,0 14,4 15,2 15,2 14,5 31 17 40 22 S 1018,3 4,6 57 0,0
15.10.2017 17:00:00 16,1 14,4 16,6 15,5 14,4 29 15 36 19 S 1018,8 3,6 60 0,0
15.10.2017 16:00:00 16,3 14,2 18,4 15,6 14,3 28 15 34 19 S 1019,4 4,3 60 0,0
15.10.2017 15:00:00 16,6 13,9 20,5 15,5 14,1 23 12 30 16 S 1020,2 4,0 60 0,0
15.10.2017 14:00:00 15,8 13,7 19,7 15,2 14,0 23 12 35 19 S 1020,8 5 52 0,0
15.10.2017 13:00:00 15,8 13,6 19,7 14,8 13,8 24 13 30 16 S 1021,5 6 59 0,0
15.10.2017 12:00:00 15,2 13,5 18,5 14,4 13,7 23 12 32 17 S 1021,8 4,8 55 0,0
15.10.2017 11:00:00 14,4 14,0 15,7 14,0 13,6 26 14 32 18 S 1021,9 3,7 26 0,0
15.10.2017 10:00:00 13,8 13,8 14,4 13,8 13,6 21 12 30 16 S 1021,9 0,2 0 0,0
15.10.2017 09:00:00 12,9 12,7 13,2 13,7 13,7 14 8 18 10 S 1022,3 0,1 0 0,0
15.10.2017 08:00:00 13,7 13,7 13,4 13,7 13,7 15 8 23 12 SSW 1022,5 1,4 0 0,0
15.10.2017 07:00:00 14,2 14,1 14,0 13,8 13,7 19 10 28 15 SW 1022,7 0,1 0 0,0
15.10.2017 06:00:00 14,4 14,3 14,0 13,9 13,8 20 11 31 17 SW 1022,5 2,2 0 0,0

tt = Température de l'air
td = dewpoint
tt 5cm = Température de l'air 5cm
tt -5cm = Température de l'air -5cm
tt -20cm = Température de l'air -20cm
ff = Vitesse du vent
fx = gusts
dd = Direction du vent
ppp = reduced air pressure
vv = visibility
sd = Ensoleillement
rr = Quantités de précipitations

stations d'obs. à proximité